owner,sensor,date,latitude,longitude,vertical_datum,wind_speed,wind_to_direction,wind_speed_of_gust,qcFlag 
TABS,ioos:station:wmo:42047:1,2005-06-01T00:09:00Z,27.8966,-93.5973,4.0,0.676017751,29.2189679,5.39,'11111222,11111222,11111222' 
TABS,ioos:station:wmo:42047:1,2005-06-01T00:39:00Z,27.8966,-93.5973,4.0,1.167304588,25.90623696,5.74,'11111222,11111222,11111222' 
TABS,ioos:station:wmo:42047:1,2005-06-01T01:09:00Z,27.8966,-93.5973,4.0,1.951332878,28.79765205,6.58,'11111222,11111222,11111222' 
TABS,ioos:station:wmo:42047:1,2005-06-01T01:39:00Z,27.8966,-93.5973,4.0,1.494857853,21.58762489,6.27,'11111222,11111222,11111222' 
TABS,ioos:station:wmo:42047:1,2005-06-01T02:09:00Z,27.8966,-93.5973,4.0,1.210165278,10.47399988,5.76,'11111222,11111222,11111222' 
TABS,ioos:station:wmo:42047:1,2005-06-01T02:39:00Z,27.8966,-93.5973,4.0,2.078581247,23.23452015,7.06,'11111222,11111222,11111222' 
TABS,ioos:station:wmo:42047:1,2005-06-01T03:09:00Z,27.8966,-93.5973,4.0,1.472005435,36.71390666,6.23,'11111222,11111222,11111222' 
TABS,ioos:station:wmo:42047:1,2005-06-01T03:39:00Z,27.8966,-93.5973,4.0,0.736002717,36.71390666,5.41,'11111222,11111222,11111222' 
TABS,ioos:station:wmo:42047:1,2005-06-01T04:09:00Z,27.8966,-93.5973,4.0,1.127918437,14.89845014,5.79,'11111222,11111222,11111222' 
TABS,ioos:station:wmo:42047:1,2005-06-01T04:39:00Z,27.8966,-93.5973,4.0,0.120415946,4.763420093,5.11,'11111222,11111222,11111222' 
TABS,ioos:station:wmo:42047:1,2005-06-01T05:09:00Z,27.8966,-93.5973,4.0,0.205912603,29.0543257,4.93,'11111222,11111222,11111222' 
TABS,ioos:station:wmo:42047:1,2005-06-01T05:39:00Z,27.8966,-93.5973,4.0,0.183847763,44.99968431,4.91,'11111222,11111222,11111222' 
TABS,ioos:station:wmo:42047:1,2005-06-01T06:09:00Z,27.8966,-93.5973,4.0,0.098994949,44.99968431,4.85,'11111222,11111222,11111222' 
TABS,ioos:station:wmo:42047:1,2005-06-01T06:39:00Z,27.8966,-93.5973,4.0,0.16,90.00042092,5.17,'11111222,11111222,11111222' 
TABS,ioos:station:wmo:42047:1,2005-06-01T07:09:00Z,27.8966,-93.5973,4.0,1.222497444,113.6297434,6.2,'11111222,11111222,11111222' 
TABS,ioos:station:wmo:42047:1,2005-06-01T07:39:00Z,27.8966,-93.5973,4.0,2.177200037,123.7633977,6.87,'11111222,11111222,11111222' 
TABS,ioos:station:wmo:42047:1,2005-06-01T08:09:00Z,27.8966,-93.5973,4.0,2.17414351,131.8308296,8.05,'11111222,11111222,11111222' 
TABS,ioos:station:wmo:42047:1,2005-06-01T08:39:00Z,27.8966,-93.5973,4.0,2.454893073,133.1846352,8.06,'11111222,11111222,11111222' 
TABS,ioos:station:wmo:42047:1,2005-06-01T09:09:00Z,27.8966,-93.5973,4.0,3.112699793,149.0680942,8.63,'11111222,11111222,11111222' 
TABS,ioos:station:wmo:42047:1,2005-06-01T09:39:00Z,27.8966,-93.5973,4.0,2.613446001,131.7431014,7.85,'11111222,11111222,11111222' 
TABS,ioos:station:wmo:42047:1,2005-06-01T10:09:00Z,27.8966,-93.5973,4.0,1.115168149,122.5503483,6.59,'11111222,11111222,11111222' 
TABS,ioos:station:wmo:42047:1,2005-06-01T10:39:00Z,27.8966,-93.5973,4.0,0.260192237,87.79698607,5.25,'11111222,11111222,11111222' 
TABS,ioos:station:wmo:42047:1,2005-06-01T11:09:00Z,27.8966,-93.5973,4.0,1.70531522,110.2418261,7.07,'11111222,11111222,11111222' 
TABS,ioos:station:wmo:42047:1,2005-06-01T11:39:00Z,27.8966,-93.5973,4.0,0.246981781,248.6294277,5.46,'11111222,11111222,11111222' 
TABS,ioos:station:wmo:42047:1,2005-06-01T12:09:00Z,27.8966,-93.5973,4.0,0.114017543,52.124684,5.25,'11111222,11111222,11111222' 
TABS,ioos:station:wmo:42047:1,2005-06-01T12:39:00Z,27.8966,-93.5973,4.0,0.170293864,183.3666632,4.88,'11111222,11111222,11111222' 
TABS,ioos:station:wmo:42047:1,2005-06-01T13:09:00Z,27.8966,-93.5973,4.0,3.08058436,197.3763849,8.01,'11111222,11111222,11111222' 
TABS,ioos:station:wmo:42047:1,2005-06-01T13:39:00Z,27.8966,-93.5973,4.0,3.076117683,225.6586469,8.52,'11111222,11111222,11111222' 
TABS,ioos:station:wmo:42047:1,2005-06-01T14:39:00Z,27.8966,-93.5973,4.0,3.525251764,236.8058699,8.25,'11111222,11111222,11111222' 
TABS,ioos:station:wmo:42047:1,2005-06-01T15:09:00Z,27.8966,-93.5973,4.0,4.070343966,219.5173202,9.15,'11111222,11111222,11111222' 
TABS,ioos:station:wmo:42047:1,2005-06-01T15:39:00Z,27.8966,-93.5973,4.0,5.765899756,234.6010235,10.87,'11111222,11111222,11111222' 
TABS,ioos:station:wmo:42047:1,2005-06-01T16:39:00Z,27.8966,-93.5973,4.0,6.322562772,249.4440028,11.5,'11111222,11111222,11111222' 
TABS,ioos:station:wmo:42047:1,2005-06-01T17:09:00Z,27.8966,-93.5973,4.0,7.998862419,253.5134827,14.19,'11111222,11111222,11111222' 
TABS,ioos:station:wmo:42047:1,2005-06-01T17:39:00Z,27.8966,-93.5973,4.0,7.963322171,276.6341611,14.37,'11111222,11111222,11111222' 
TABS,ioos:station:wmo:42047:1,2005-06-01T18:09:00Z,27.8966,-93.5973,4.0,6.325796393,261.7290155,11.76,'11111222,11111222,11111222' 
TABS,ioos:station:wmo:42047:1,2005-06-01T18:39:00Z,27.8966,-93.5973,4.0,7.015589783,230.842848,12.8,'11111222,11111222,11111222' 
TABS,ioos:station:wmo:42047:1,2005-06-01T19:09:00Z,27.8966,-93.5973,4.0,6.118472031,216.1583113,11.44,'11111222,11111222,11111222' 
TABS,ioos:station:wmo:42047:1,2005-06-01T19:39:00Z,27.8966,-93.5973,4.0,5.277878362,205.5941799,10.98,'11111222,11111222,11111222' 
TABS,ioos:station:wmo:42047:1,2005-06-01T20:39:00Z,27.8966,-93.5973,4.0,3.670340584,300.2676031,14.04,'11111222,11111222,11111222' 
TABS,ioos:station:wmo:42047:1,2005-06-01T21:09:00Z,27.8966,-93.5973,4.0,4.136568626,301.1537187,9.38,'11111222,11111222,11111222' 
TABS,ioos:station:wmo:42047:1,2005-06-01T21:39:00Z,27.8966,-93.5973,4.0,4.331697127,294.5533657,10.26,'11111222,11111222,11111222' 
TABS,ioos:station:wmo:42047:1,2005-06-01T22:09:00Z,27.8966,-93.5973,4.0,5.453998533,292.1915169,10.99,'11111222,11111222,11111222' 
TABS,ioos:station:wmo:42047:1,2005-06-01T22:39:00Z,27.8966,-93.5973,4.0,7.378001084,323.0989151,13.62,'11111222,11111222,11111222' 
TABS,ioos:station:wmo:42047:1,2005-06-01T23:09:00Z,27.8966,-93.5973,4.0,7.852439112,321.2033282,13.33,'11111222,11111222,11111222' 
TABS,ioos:station:wmo:42047:1,2005-06-01T23:39:00Z,27.8966,-93.5973,4.0,6.928780556,322.2699464,12.29,'11111222,11111222,11111222' 
TABS,ioos:station:wmo:42047:1,2005-06-02T00:09:00Z,27.8966,-93.5973,4.0,6.657634715,319.2025644,12.16,'11111222,11111222,11111222' 
TABS,ioos:station:wmo:42047:1,2005-06-02T00:39:00Z,27.8966,-93.5973,4.0,5.763341045,326.3925182,12.28,'11111222,11111222,11111222' 
TABS,ioos:station:wmo:42047:1,2005-06-02T01:09:00Z,27.8966,-93.5973,4.0,5.262746431,335.5288614,10.66,'11111222,11111222,11111222' 
TABS,ioos:station:wmo:42047:1,2005-06-02T01:39:00Z,27.8966,-93.5973,4.0,4.390580827,344.9507227,9.93,'11111222,11111222,11111222' 
TABS,ioos:station:wmo:42047:1,2005-06-02T02:09:00Z,27.8966,-93.5973,4.0,3.625093102,350.9532329,8.45,'11111222,11111222,11111222' 
TABS,ioos:station:wmo:42047:1,2005-06-02T02:39:00Z,27.8966,-93.5973,4.0,3.580195525,355.6747392,8.73,'11111222,11111222,11111222' 
TABS,ioos:station:wmo:42047:1,2005-06-02T03:10:00Z,27.8966,-93.5973,4.0,1412.799349,44.99968431,9.24,'11144222,11111222,11111222' 
TABS,ioos:station:wmo:42047:1,2005-06-02T03:39:00Z,27.8966,-93.5973,4.0,4.051876109,355.6119398,9.03,'11111222,11111222,11111222' 
TABS,ioos:station:wmo:42047:1,2005-06-02T04:09:00Z,27.8966,-93.5973,4.0,4.240577791,359.0539568,9.76,'11111222,11144222,11111222' 
TABS,ioos:station:wmo:42047:1,2005-06-02T04:39:00Z,27.8966,-93.5973,4.0,4.210190019,359.4554292,9.59,'11111222,11144222,11111222' 
TABS,ioos:station:wmo:42047:1,2005-06-02T05:09:00Z,27.8966,-93.5973,4.0,3.95506005,2.898359563,9.33,'11111222,11111222,11111222' 
TABS,ioos:station:wmo:42047:1,2005-06-02T05:39:00Z,27.8966,-93.5973,4.0,3.632588609,25.08332489,8.73,'11111222,11111222,11111222' 
TABS,ioos:station:wmo:42047:1,2005-06-02T06:09:00Z,27.8966,-93.5973,4.0,2.84608503,36.426706,7.64,'11111222,11111222,11111222' 
TABS,ioos:station:wmo:42047:1,2005-06-02T06:39:00Z,27.8966,-93.5973,4.0,1.605147968,45.2520864,6.55,'11111222,11111222,11111222' 
TABS,ioos:station:wmo:42047:1,2005-06-02T07:09:00Z,27.8966,-93.5973,4.0,1.648393157,54.38117253,6.17,'11111222,11111222,11111222' 
TABS,ioos:station:wmo:42047:1,2005-06-02T07:39:00Z,27.8966,-93.5973,4.0,0.542033209,60.12365625,5.51,'11111222,11111222,11111222' 
TABS,ioos:station:wmo:42047:1,2005-06-02T08:09:00Z,27.8966,-93.5973,4.0,0.114017543,52.124684,5.24,'11111222,11111222,11111222' 
TABS,ioos:station:wmo:42047:1,2005-06-02T08:39:00Z,27.8966,-93.5973,4.0,0.344818793,73.14121974,4.81,'11111222,11111222,11111222' 
TABS,ioos:station:wmo:42047:1,2005-06-02T09:09:00Z,27.8966,-93.5973,4.0,0.126491106,71.56467337,4.81,'11111222,11111222,11111222' 
TABS,ioos:station:wmo:42047:1,2005-06-02T09:39:00Z,27.8966,-93.5973,4.0,0.807774721,58.67095947,5.79,'11111222,11111222,11111222' 
TABS,ioos:station:wmo:42047:1,2005-06-02T10:09:00Z,27.8966,-93.5973,4.0,0.460651712,62.8783391,5.44,'11111222,11111222,11111222' 
TABS,ioos:station:wmo:42047:1,2005-06-02T10:39:00Z,27.8966,-93.5973,4.0,0.392937654,75.25605072,4.86,'11111222,11111222,11111222' 
TABS,ioos:station:wmo:42047:1,2005-06-02T11:09:00Z,27.8966,-93.5973,4.0,1.085034562,80.45046748,5.36,'11111222,11111222,11111222' 
TABS,ioos:station:wmo:42047:1,2005-06-02T11:39:00Z,27.8966,-93.5973,4.0,0.17,270.0,4.31,'11111222,11111222,11111222' 
TABS,ioos:station:wmo:42047:1,2005-06-02T12:09:00Z,27.8966,-93.5973,4.0,0.04,90.00042092,4.5,'11111222,11111222,11111222' 
TABS,ioos:station:wmo:42047:1,2005-06-02T12:39:00Z,27.8966,-93.5973,4.0,0.560802996,93.06689925,5.27,'11111222,11111222,11111222' 
TABS,ioos:station:wmo:42047:1,2005-06-02T13:09:00Z,27.8966,-93.5973,4.0,0.172046505,305.5375947,4.62,'11111222,11111222,11111222' 
TABS,ioos:station:wmo:42047:1,2005-06-02T13:39:00Z,27.8966,-93.5973,4.0,1.042017274,127.200146,5.69,'11111222,11111222,11111222' 
TABS,ioos:station:wmo:42047:1,2005-06-02T14:09:00Z,27.8966,-93.5973,4.0,1.579430277,151.6503823,6.26,'11111222,11111222,11111222' 
TABS,ioos:station:wmo:42047:1,2005-06-02T14:39:00Z,27.8966,-93.5973,4.0,1.569745202,153.108754,6.33,'11111222,11111222,11111222' 
TABS,ioos:station:wmo:42047:1,2005-06-02T15:09:00Z,27.8966,-93.5973,4.0,1.857336803,148.877813,6.55,'11111222,11111222,11111222' 
TABS,ioos:station:wmo:42047:1,2005-06-02T15:39:00Z,27.8966,-93.5973,4.0,1.772794404,156.0377775,6.66,'11111222,11111222,11111222' 
TABS,ioos:station:wmo:42047:1,2005-06-02T16:09:00Z,27.8966,-93.5973,4.0,2.176717713,171.0139206,7.8,'11111222,11111222,11111222' 
TABS,ioos:station:wmo:42047:1,2005-06-02T16:39:00Z,27.8966,-93.5973,4.0,1.291897829,183.1062303,6.73,'11111222,11111222,11111222' 
TABS,ioos:station:wmo:42047:1,2005-06-02T17:09:00Z,27.8966,-93.5973,4.0,1.352996674,176.1861445,6.22,'11111222,11111222,11111222' 
TABS,ioos:station:wmo:42047:1,2005-06-02T17:39:00Z,27.8966,-93.5973,4.0,1.54029218,197.3763849,7.61,'11111222,11111222,11111222' 
TABS,ioos:station:wmo:42047:1,2005-06-02T18:09:00Z,27.8966,-93.5973,4.0,1.250959632,212.9279961,6.47,'11111222,11111222,11111222' 
TABS,ioos:station:wmo:42047:1,2005-06-02T18:39:00Z,27.8966,-93.5973,4.0,1.595054858,214.7861561,6.78,'11111222,11111222,11111222' 
TABS,ioos:station:wmo:42047:1,2005-06-02T19:09:00Z,27.8966,-93.5973,4.0,1.933416665,214.6765404,6.99,'11111222,11111222,11111222' 
TABS,ioos:station:wmo:42047:1,2005-06-02T19:39:00Z,27.8966,-93.5973,4.0,2.748381342,248.6631906,7.61,'11111222,11111222,11111222' 
TABS,ioos:station:wmo:42047:1,2005-06-02T20:09:00Z,27.8966,-93.5973,4.0,2.111160818,271.9001065,7.19,'11111222,11111222,11111222' 
TABS,ioos:station:wmo:42047:1,2005-06-02T20:39:00Z,27.8966,-93.5973,4.0,1.854427135,279.3099184,6.58,'11111222,11111222,11111222' 
TABS,ioos:station:wmo:42047:1,2005-06-02T21:09:00Z,27.8966,-93.5973,4.0,1.710263138,291.6147284,6.23,'11111222,11111222,11111222' 
TABS,ioos:station:wmo:42047:1,2005-06-02T21:39:00Z,27.8966,-93.5973,4.0,2.406927502,292.7296789,6.87,'11111222,11111222,11111222' 
TABS,ioos:station:wmo:42047:1,2005-06-02T22:09:00Z,27.8966,-93.5973,4.0,1.508409759,298.9438557,6.38,'11111222,11111222,11111222' 
TABS,ioos:station:wmo:42047:1,2005-06-02T22:39:00Z,27.8966,-93.5973,4.0,1.88986772,309.4173021,6.49,'11111222,11111222,11111222' 
TABS,ioos:station:wmo:42047:1,2005-06-02T23:09:00Z,27.8966,-93.5973,4.0,2.170829335,337.8063369,6.75,'11111222,11111222,11111222' 
TABS,ioos:station:wmo:42047:1,2005-06-03T00:09:00Z,27.8966,-93.5973,4.0,1.50119952,2.290394228,6.08,'11111222,11111222,11111222' 
TABS,ioos:station:wmo:42047:1,2005-06-03T00:39:00Z,27.8966,-93.5973,4.0,1.454166428,37.73645656,6.29,'11111222,11111222,11111222' 
TABS,ioos:station:wmo:42047:1,2005-06-03T01:09:00Z,27.8966,-93.5973,4.0,2.301238797,47.99395843,7.22,'11111222,11111222,11111222' 
TABS,ioos:station:wmo:42047:1,2005-06-03T01:39:00Z,27.8966,-93.5973,4.0,2.901758088,59.10362027,7.68,'11111222,11111222,11111222' 
TABS,ioos:station:wmo:42047:1,2005-06-03T02:09:00Z,27.8966,-93.5973,4.0,2.943076621,62.4768493,8.09,'11111222,11111222,11111222' 
TABS,ioos:station:wmo:42047:1,2005-06-03T02:39:00Z,27.8966,-93.5973,4.0,2.840070422,70.67149513,8.43,'11111222,11111222,11111222' 
TABS,ioos:station:wmo:42047:1,2005-06-03T03:09:00Z,27.8966,-93.5973,4.0,2.683766011,69.26867209,7.31,'11111222,11111222,11111222' 
TABS,ioos:station:wmo:42047:1,2005-06-03T03:39:00Z,27.8966,-93.5973,4.0,2.772453787,75.16138204,8.22,'11111222,11111222,11111222' 
TABS,ioos:station:wmo:42047:1,2005-06-03T04:09:00Z,27.8966,-93.5973,4.0,3.792228896,83.79288042,8.98,'11111222,11111222,11111222' 
TABS,ioos:station:wmo:42047:1,2005-06-03T04:39:00Z,27.8966,-93.5973,4.0,4.112541793,81.75127931,10.7,'11111222,11111222,11111222' 
TABS,ioos:station:wmo:42047:1,2005-06-03T05:09:00Z,27.8966,-93.5973,4.0,4.391138804,88.69466476,10.95,'11111222,11111222,11111222' 
TABS,ioos:station:wmo:42047:1,2005-06-03T05:39:00Z,27.8966,-93.5973,4.0,4.068722158,97.9114396,10.99,'11111222,11111222,11111222' 
TABS,ioos:station:wmo:42047:1,2005-06-03T06:09:00Z,27.8966,-93.5973,4.0,3.835374819,102.804657,9.05,'11111222,11111222,11111222' 
TABS,ioos:station:wmo:42047:1,2005-06-03T06:39:00Z,27.8966,-93.5973,4.0,3.749946666,103.2584074,9.12,'11111222,11111222,11111222' 
TABS,ioos:station:wmo:42047:1,2005-06-03T07:09:00Z,27.8966,-93.5973,4.0,4.044564253,108.3009352,10.11,'11111222,11111222,11111222' 
TABS,ioos:station:wmo:42047:1,2005-06-03T07:39:00Z,27.8966,-93.5973,4.0,4.323424569,114.3127055,10.4,'11111222,11111222,11111222' 
TABS,ioos:station:wmo:42047:1,2005-06-03T08:09:00Z,27.8966,-93.5973,4.0,4.467672772,116.4507041,10.54,'11111222,11111222,11111222' 
TABS,ioos:station:wmo:42047:1,2005-06-03T08:39:00Z,27.8966,-93.5973,4.0,4.737647095,122.851833,11.06,'11111222,11111222,11111222' 
TABS,ioos:station:wmo:42047:1,2005-06-03T09:09:00Z,27.8966,-93.5973,4.0,5.070069033,124.0665245,11.38,'11111222,11111222,11111222' 
TABS,ioos:station:wmo:42047:1,2005-06-03T10:09:00Z,27.8966,-93.5973,4.0,5.897262077,122.7472458,11.98,'11111222,11111222,11111222' 
TABS,ioos:station:wmo:42047:1,2005-06-03T10:39:00Z,27.8966,-93.5973,4.0,6.785116064,121.7461507,12.33,'11111222,11111222,11111222' 
TABS,ioos:station:wmo:42047:1,2005-06-03T11:09:00Z,27.8966,-93.5973,4.0,7.100007042,129.2272791,12.94,'11111222,11111222,11111222' 
TABS,ioos:station:wmo:42047:1,2005-06-03T11:39:00Z,27.8966,-93.5973,4.0,7.936201862,137.8091788,14.98,'11111222,11111222,11111222' 
TABS,ioos:station:wmo:42047:1,2005-06-03T12:09:00Z,27.8966,-93.5973,4.0,7.653103945,136.3768408,13.6,'11111222,11111222,11111222' 
TABS,ioos:station:wmo:42047:1,2005-06-03T12:39:00Z,27.8966,-93.5973,4.0,7.602137857,135.7997379,13.6,'11111222,11111222,11111222' 
TABS,ioos:station:wmo:42047:1,2005-06-03T13:09:00Z,27.8966,-93.5973,4.0,7.391055405,133.7394668,13.09,'11111222,11111222,11111222' 
TABS,ioos:station:wmo:42047:1,2005-06-03T13:39:00Z,27.8966,-93.5973,4.0,7.507343072,144.2142002,13.81,'11111222,11111222,11111222' 
TABS,ioos:station:wmo:42047:1,2005-06-03T14:09:00Z,27.8966,-93.5973,4.0,7.384768107,148.850243,12.99,'11111222,11111222,11111222' 
TABS,ioos:station:wmo:42047:1,2005-06-03T14:39:00Z,27.8966,-93.5973,4.0,7.055558093,155.106022,13.0,'11111222,11111222,11111222' 
TABS,ioos:station:wmo:42047:1,2005-06-03T15:09:00Z,27.8966,-93.5973,4.0,6.577453915,156.2412036,12.38,'11111222,11111222,11111222' 
TABS,ioos:station:wmo:42047:1,2005-06-03T15:39:00Z,27.8966,-93.5973,4.0,6.594679674,156.117171,12.48,'11111222,11111222,11111222' 
TABS,ioos:station:wmo:42047:1,2005-06-03T16:09:00Z,27.8966,-93.5973,4.0,6.645600048,163.746941,12.46,'11111222,11111222,11111222' 
TABS,ioos:station:wmo:42047:1,2005-06-03T16:39:00Z,27.8966,-93.5973,4.0,6.771063432,158.9688239,12.37,'11111222,11111222,11111222' 
TABS,ioos:station:wmo:42047:1,2005-06-03T17:09:00Z,27.8966,-93.5973,4.0,6.182628891,164.2330648,11.92,'11111222,11111222,11111222' 
TABS,ioos:station:wmo:42047:1,2005-06-03T17:39:00Z,27.8966,-93.5973,4.0,5.204017679,155.3558518,11.48,'11111222,11111222,11111222' 
TABS,ioos:station:wmo:42047:1,2005-06-03T18:09:00Z,27.8966,-93.5973,4.0,4.594975517,155.1641658,10.2,'11111222,11111222,11111222' 
TABS,ioos:station:wmo:42047:1,2005-06-03T18:39:00Z,27.8966,-93.5973,4.0,3.476665069,142.0096836,9.37,'11111222,11111222,11111222' 
TABS,ioos:station:wmo:42047:1,2005-06-03T19:09:00Z,27.8966,-93.5973,4.0,4.359082472,137.2314851,9.89,'11111222,11111222,11111222' 
TABS,ioos:station:wmo:42047:1,2005-06-03T19:39:00Z,27.8966,-93.5973,4.0,4.33619649,125.0464833,10.5,'11111222,11111222,11111222' 
TABS,ioos:station:wmo:42047:1,2005-06-03T20:09:00Z,27.8966,-93.5973,4.0,3.858458241,137.8364968,9.93,'11111222,11111222,11111222' 
TABS,ioos:station:wmo:42047:1,2005-06-03T20:39:00Z,27.8966,-93.5973,4.0,3.603234658,121.2640795,9.87,'11111222,11111222,11111222' 
TABS,ioos:station:wmo:42047:1,2005-06-03T21:09:00Z,27.8966,-93.5973,4.0,4.787995405,133.9002391,10.46,'11111222,11111222,11111222' 
TABS,ioos:station:wmo:42047:1,2005-06-03T21:39:00Z,27.8966,-93.5973,4.0,5.777629272,132.0538752,11.83,'11111222,11111222,11111222' 
TABS,ioos:station:wmo:42047:1,2005-06-03T22:09:00Z,27.8966,-93.5973,4.0,5.666621568,123.0454052,11.31,'11111222,11111222,11111222' 
TABS,ioos:station:wmo:42047:1,2005-06-03T22:39:00Z,27.8966,-93.5973,4.0,6.93181073,116.56541,12.69,'11111222,11111222,11111222' 
TABS,ioos:station:wmo:42047:1,2005-06-03T23:09:00Z,27.8966,-93.5973,4.0,7.438077709,110.8719692,13.35,'11111222,11111222,11111222' 
TABS,ioos:station:wmo:42047:1,2005-06-03T23:39:00Z,27.8966,-93.5973,4.0,7.264778042,110.3810332,13.78,'11111222,11111222,11111222' 
TABS,ioos:station:wmo:42047:1,2005-06-04T00:09:00Z,27.8966,-93.5973,4.0,6.719538675,110.1073236,13.07,'11111222,11111222,11111222' 
TABS,ioos:station:wmo:42047:1,2005-06-04T00:39:00Z,27.8966,-93.5973,4.0,6.880014535,111.7553862,12.73,'11111222,11111222,11111222' 
TABS,ioos:station:wmo:42047:1,2005-06-04T01:09:00Z,27.8966,-93.5973,4.0,5.785404048,107.0885475,11.95,'11111222,11111222,11111222' 
TABS,ioos:station:wmo:42047:1,2005-06-04T01:39:00Z,27.8966,-93.5973,4.0,6.213855486,112.5209339,12.57,'11111222,11111222,11111222' 
TABS,ioos:station:wmo:42047:1,2005-06-04T02:09:00Z,27.8966,-93.5973,4.0,6.592002731,116.293316,13.39,'11111222,11111222,11111222' 
TABS,ioos:station:wmo:42047:1,2005-06-04T02:39:00Z,27.8966,-93.5973,4.0,6.512342129,111.7200919,13.62,'11111222,11111222,11111222' 
TABS,ioos:station:wmo:42047:1,2005-06-04T03:09:00Z,27.8966,-93.5973,4.0,6.336095012,111.3819771,13.39,'11111222,11111222,11111222' 
TABS,ioos:station:wmo:42047:1,2005-06-04T03:39:00Z,27.8966,-93.5973,4.0,6.256748357,116.0739655,12.95,'11111222,11111222,11111222' 
TABS,ioos:station:wmo:42047:1,2005-06-04T04:09:00Z,27.8966,-93.5973,4.0,6.114981603,115.2663166,13.07,'11111222,11111222,11111222' 
TABS,ioos:station:wmo:42047:1,2005-06-04T04:39:00Z,27.8966,-93.5973,4.0,6.719650289,115.0018026,13.57,'11111222,11111222,11111222' 
TABS,ioos:station:wmo:42047:1,2005-06-04T05:09:00Z,27.8966,-93.5973,4.0,7.209001318,120.0508328,14.2,'11111222,11111222,11111222' 
TABS,ioos:station:wmo:42047:1,2005-06-04T05:39:00Z,27.8966,-93.5973,4.0,7.799948718,121.367234,14.78,'11111222,11111222,11111222' 
TABS,ioos:station:wmo:42047:1,2005-06-04T06:09:00Z,27.8966,-93.5973,4.0,7.008708868,122.0577217,15.12,'11111222,11111222,11111222' 
TABS,ioos:station:wmo:42047:1,2005-06-04T06:39:00Z,27.8966,-93.5973,4.0,6.859169046,134.527785,14.89,'11111222,11111222,11111222' 
TABS,ioos:station:wmo:42047:1,2005-06-04T07:09:00Z,27.8966,-93.5973,4.0,6.887103891,129.8165507,14.77,'11111222,11111222,11111222' 
TABS,ioos:station:wmo:42047:1,2005-06-04T07:39:00Z,27.8966,-93.5973,4.0,6.393066557,130.2419479,15.3,'11111222,11111222,11111222' 
TABS,ioos:station:wmo:42047:1,2005-06-04T08:09:00Z,27.8966,-93.5973,4.0,7.275115119,130.037823,14.79,'11111222,11111222,11111222' 
TABS,ioos:station:wmo:42047:1,2005-06-04T08:39:00Z,27.8966,-93.5973,4.0,6.822462898,121.4537995,14.2,'11111222,11111222,11111222' 
TABS,ioos:station:wmo:42047:1,2005-06-04T09:09:00Z,27.8966,-93.5973,4.0,7.637447217,130.0076095,14.49,'11111222,11111222,11111222' 
TABS,ioos:station:wmo:42047:1,2005-06-04T09:39:00Z,27.8966,-93.5973,4.0,7.59266093,130.8880965,15.24,'11111222,11111222,11111222' 
TABS,ioos:station:wmo:42047:1,2005-06-04T10:09:00Z,27.8966,-93.5973,4.0,7.627850287,128.1322454,14.72,'11111222,11111222,11111222' 
TABS,ioos:station:wmo:42047:1,2005-06-04T10:39:00Z,27.8966,-93.5973,4.0,7.240511032,129.9578764,13.6,'11111222,11111222,11111222' 
TABS,ioos:station:wmo:42047:1,2005-06-04T11:09:00Z,27.8966,-93.5973,4.0,7.355005099,132.3002117,14.39,'11111222,11111222,11111222' 
TABS,ioos:station:wmo:42047:1,2005-06-04T11:39:00Z,27.8966,-93.5973,4.0,6.940950943,138.270796,13.58,'11111222,11111222,11111222' 
TABS,ioos:station:wmo:42047:1,2005-06-04T12:09:00Z,27.8966,-93.5973,4.0,7.813859482,139.2558515,15.04,'11111222,11111222,11111222' 
TABS,ioos:station:wmo:42047:1,2005-06-04T12:39:00Z,27.8966,-93.5973,4.0,8.18746603,138.267973,14.96,'11111222,11111222,11111222' 
TABS,ioos:station:wmo:42047:1,2005-06-04T13:09:00Z,27.8966,-93.5973,4.0,7.294964016,137.0556304,14.07,'11111222,11111222,11111222' 
TABS,ioos:station:wmo:42047:1,2005-06-04T13:39:00Z,27.8966,-93.5973,4.0,6.668650538,141.5149285,13.51,'11111222,11111222,11111222' 
TABS,ioos:station:wmo:42047:1,2005-06-04T14:09:00Z,27.8966,-93.5973,4.0,6.477669334,145.0589954,13.06,'11111222,11111222,11111222' 
TABS,ioos:station:wmo:42047:1,2005-06-04T14:39:00Z,27.8966,-93.5973,4.0,6.581527178,147.9764464,13.22,'11111222,11111222,11111222' 
TABS,ioos:station:wmo:42047:1,2005-06-04T15:09:00Z,27.8966,-93.5973,4.0,7.212544627,147.4559819,13.24,'11111222,11111222,11111222' 
TABS,ioos:station:wmo:42047:1,2005-06-04T15:39:00Z,27.8966,-93.5973,4.0,7.09038786,150.9770692,13.15,'11111222,11111222,11111222' 
TABS,ioos:station:wmo:42047:1,2005-06-04T16:09:00Z,27.8966,-93.5973,4.0,6.753073374,153.8146572,12.66,'11111222,11111222,11111222' 
TABS,ioos:station:wmo:42047:1,2005-06-04T16:39:00Z,27.8966,-93.5973,4.0,6.370282568,156.0103808,12.81,'11111222,11111222,11111222' 
TABS,ioos:station:wmo:42047:1,2005-06-04T17:09:00Z,27.8966,-93.5973,4.0,6.292288932,149.114607,12.31,'11111222,11111222,11111222' 
TABS,ioos:station:wmo:42047:1,2005-06-04T17:39:00Z,27.8966,-93.5973,4.0,6.198790205,139.4491382,12.76,'11111222,11111222,11111222' 
TABS,ioos:station:wmo:42047:1,2005-06-04T18:09:00Z,27.8966,-93.5973,4.0,5.791182953,130.0972517,13.29,'11111222,11111222,11111222' 
TABS,ioos:station:wmo:42047:1,2005-06-04T18:39:00Z,27.8966,-93.5973,4.0,5.433313906,123.5149258,12.9,'11111222,11111222,11111222' 
TABS,ioos:station:wmo:42047:1,2005-06-04T19:09:00Z,27.8966,-93.5973,4.0,5.740531334,120.2280497,13.73,'11111222,11111222,11111222' 
TABS,ioos:station:wmo:42047:1,2005-06-04T19:39:00Z,27.8966,-93.5973,4.0,5.146066459,114.5733211,13.95,'11111222,11111222,11111222' 
TABS,ioos:station:wmo:42047:1,2005-06-04T20:09:00Z,27.8966,-93.5973,4.0,6.140960837,117.4416771,13.2,'11111222,11111222,11111222' 
TABS,ioos:station:wmo:42047:1,2005-06-04T20:39:00Z,27.8966,-93.5973,4.0,4.993645963,113.485207,12.33,'11111222,11111222,11111222' 
TABS,ioos:station:wmo:42047:1,2005-06-04T21:09:00Z,27.8966,-93.5973,4.0,5.765084561,115.8098091,13.27,'11111222,11111222,11111222' 